sat.trackr.live / text

‹ back to catalog

STARLINK-36441

NORAD 67469 · 2026-008AA

PAYLOAD ACTIVE UNKNOWN

§ Identity

Operator
Country
US
Launch date
2026-01-14
Launch site
AFETR
Launch vehicle
Mass (kg)
RCS (m²)

Purposes: comms

External: N2YO · Heavens-Above · Gunter

§ Orbital elements

Epoch: 2026-05-24T23:06:52.204608Z

Period
94.27 min
Inclination
43.0013°
Eccentricity
0.0004107
Mean motion
15.27598125 rev/d
Perigee alt
480.2 km
Apogee alt
485.8 km
Semi-major
6,861.1 km
B*
7.5275e-4
RAAN
134.7717°
Arg perigee
292.0826°
Mean anomaly
67.9589°
Rev number
2,123

§ Raw data

STARLINK-364411 67469U 26008AA  26144.96310422  .00020524  00000+0  75275-3 0  99932 67469  43.0013 134.7717 0004107 292.0826  67.9589 15.27598125 21233

JSON: /api/v1/satellites/67469 · /tle

For live sub-satellite position, see the globe view (requires WebGL).

§ Visibility from observer

Set your observer location to see the next 7 days of passes ≥ 10°. The values pass through the URL so the page stays shareable.

No JS? Fill the form by hand. The geolocation button needs JavaScript.